This demonstration page uses our WeatherBlox Daily Observations layout. Learn more.

Left ArrowRight Arrow

Hourly Observations for June 22, 2019

Temp ( °F °C ) Dew Point ( °F °C ) Humidity (%) Winds ( mph kmh ) Pressure ( in mb ) Visibility ( mi km ) Precip ( " mm )
12:56 am 00:56 Mostly Cloudy 65 18.3 57 13.9 76 76 NNE 13 20 29.84 1011 10 16 0.00 0.00
1:56 am 01:56 Cloudy 65 18.3 57 13.9 76 76 NNE 14 22 29.82 1010 10 16 0.00 0.00
2:56 am 02:56 Cloudy 65 18.3 56 13.3 73 73 N 15 24 29.82 1010 10 16 0.00 0.00
3:56 am 03:56 Cloudy 64 17.8 54 12.2 70 70 N 13 20 29.87 1011 10 16 0.00 0.00
4:28 am 04:28 Cloudy 63 17 54 12 73 73 N 15 24 29.84 1010 10 16 0.00 0.00
4:54 am 04:54 Partly Cloudy 61 16 54 12 77 77 NNE 15 24 29.82 1010 10 16 0.00 0.00
4:56 am 04:56 Partly Cloudy 61 16.1 53 11.7 75 75 NNE 15 24 29.81 1010 10 16 0.00 0.00
5:38 am 05:38 Mostly Cloudy 61 16 54 12 77 77 N 9 15 29.88 1012 10 16 0.00 0.00
5:56 am 05:56 Cloudy 61 16.1 54 12.2 78 78 N 12 19 29.88 1012 10 16 0.00 0.00
6:46 am 06:46 Cloudy 61 16 55 13 83 83 N 14 22 29.88 1012 10 16 0.00 0.00
6:56 am 06:56 Cloudy 61 16.1 55 12.8 81 81 NNE 16 26 29.86 1011 10 16 0.00 0.00
7:56 am 07:56 Cloudy 61 16.1 57 13.9 87 87 N 15 24 29.86 1011 10 16 0.00 0.00
8:56 am 08:56 Cloudy 62 16.7 58 14.4 86 86 N 13 20 29.88 1012 10 16 0.00 0.00
9:56 am 09:56 Cloudy 63 17.2 59 15 87 87 N 10 17 29.88 1012 10 16 0.00 0.00
10:56 am 10:56 Cloudy 65 18.3 59 15 81 81 N 13 20 29.87 1012 10 16 0.00 0.00
11:56 am 11:56 Cloudy 66 18.9 61 16.1 84 84 N 12 19 29.88 1012 10 16 0.00 0.00
12:56 pm 12:56 Cloudy 66 18.9 60 15.6 81 81 N 12 19 29.89 1012 10 16 0.00 0.00
1:56 pm 13:56 Cloudy 66 18.9 60 15.6 81 81 N 13 20 29.90 1013 10 16 0.00 0.00
2:56 pm 14:56 Cloudy 64 17.8 58 14.4 81 81 N 17 28 29.91 1013 10 16 0.00 0.00
3:56 pm 15:56 Cloudy 64 17.8 57 13.9 78 78 N 15 24 29.92 1013 10 16 0.00 0.00
4:56 pm 16:56 Cloudy 63 17.2 57 13.9 81 81 NNW 15 24 29.91 1013 10 16 0.00 0.00
5:56 pm 17:56 Cloudy 62 16.7 56 13.3 80 80 NNW 15 24 29.90 1012 10 16 0.00 0.03
6:17 pm 18:17 Cloudy 63 17 55 13 77 77 N 16 26 29.87 1012 10 16 0.00 0.00
6:56 pm 18:56 Cloudy with Light Rain 59 15 55 12.8 87 87 N 17 28 29.89 1012 10 16 0.00 0.03
7:32 pm 19:32 Cloudy 57 14 54 12 88 88 N 18 30 29.86 1011 10 16 0.00 0.00
7:56 pm 19:56 Cloudy 58 14.4 54 12.2 87 87 N 17 28 29.85 1011 10 16 0.00 0.03
8:56 pm 20:56 Cloudy 59 15 56 13.3 90 90 N 15 24 29.87 1012 10 16 0.00 0.00
9:43 pm 21:43 Cloudy 61 16 57 14 88 88 N 15 24 29.86 1011 10 16 0.00 0.00
9:51 pm 21:51 Cloudy 61 16 57 14 88 88 N 17 28 29.86 1011 10 16 0.00 0.00
9:56 pm 21:56 Cloudy 60 15.6 57 13.9 90 90 N 15 24 29.88 1012 10 16 0.00 0.00
10:19 pm 22:19 Cloudy 61 16 57 14 88 88 N 14 22 29.87 1011 10 16 0.00 0.00
10:35 pm 22:35 Cloudy 61 16 57 14 88 88 N 12 19 29.88 1012 10 16 0.00 0.00
10:56 pm 22:56 Cloudy 60 15.6 57 13.9 90 90 N 9 15 29.89 1012 10 16 0.00 0.00
11:56 pm 23:56 Cloudy 60 15.6 57 13.9 90 90 NNW 13 20 29.91 1013 10 16 0.00 0.00

Powered by AerisWeather